Tracking 28565 objects as of 3-Mar-2024
HD Live streaming from Space Station
objects crossing your sky now

ONEWEB-0507

Track ONEWEB-0507 now!
10-day predictions
ONEWEB-0507 is classified as:


NORAD ID: 54125
Int'l Code: 2022-138N
Perigee: 1,191.4 km
Apogee: 1,194.4 km
Inclination: 87.9 °
Period: 109.1 minutes
Semi major axis: 7563 km
RCS: Unknown
Launch date: October 22, 2022
Source: United Kingdom (UK)
Launch site: SRIHARIKOTA (SRI)
Your satellite tracking list
Your tracking list is empty




NASA's NSSDC Master Catalog

Two Line Element Set (TLE):
1 54125U 22138N   24063.54349890  .00000088  00000-0  18689-3 0  9991
2 54125  87.9141 111.3232 0001968  86.3662 273.7695 13.19727080 66635
Source of the keplerian elements: AFSPC